Weather Roundup
Issued by NWS

Home | Current Version | Previous Version | Graphics & Text | Print | Product List | Glossary Off
Versions: 1 2 3 4 5 6 7 8 9 10 11 12 13 14 15 16 17 18 19 20 21 22 23 24 25 26 27 28 29 30 31 32 33 34 35 36 37 38 39 40 41 42 43 44 45 46 47 48 49 50

000
NZUS93 KARX 270859
HRRWXR

CURRENT HOURLY OBSERVATIONS ACROSS
MUCH OF THE UPPER MISSISSIPPI VALLEY
NATIONAL WEATHER SERVICE LA CROSSE WI
400 AM CDT MON JUL 27 2015


...SOUTHEAST MINNESOTA...


CITY           SKY/WX    TMP DP  RH WIND       PRES   REMARKS
ROCHESTER      MOCLDY    67  66  97 SE7       29.99F
ROCHESTER/MAYO FAIR      68  69 100 E8        29.99S
WINONA         MOCLDY    70  68  94 CALM      29.99S
AUSTIN         CLOUDY    70  66  88 CALM      29.97F
ALBERT LEA     CLOUDY    72  70  94 SE6       29.96F
DODGE CENTER   MOCLDY    66  64  94 SE3       29.98F FOG
PRESTON        MOCLDY    67  65  90 SE5       29.99F
OWATONNA       MOCLDY    70  66  88 SE7       29.96F
FARIBAULT      NOT AVBL
$$

...ELSEWHERE IN MINNESOTA...


CITY           SKY/WX    TMP DP  RH WIND       PRES   REMARKS
MINNEAPOLIS    PTCLDY    72  67  84 E9        29.95F
INTNL FALLS    PTCLDY    59  57  93 CALM      29.95R
DULUTH         PTCLDY    66  60  81 SW3       29.99S
RED WING       PTCLDY    66  64  94 E5        29.96F
REDWOOD FALLS  MOCLDY    71  69  93 SE6       29.90F
MANKATO        MOCLDY    72  66  83 SE8       29.94F
WORTHINGTON    CLOUDY    68  64  88 SE5       29.92F
FAIRMONT       CLOUDY    72  64  78 SE8       29.92F
$$

...SOUTHWEST WISCONSIN...


CITY           SKY/WX    TMP DP  RH WIND       PRES   REMARKS
LA CROSSE      PTCLDY    68  65  90 E6        29.98S
PRAIRIE DU CHI MOCLDY    66  64  93 E3        29.99R
BOSCOBEL       FOG       64  63  96 CALM      29.99S VSB 3/4
LONE ROCK      FOG       62  60  93 CALM      30.00S VSB 3/4
PLATTEVILLE    CLEAR     66  64  93 E5        30.00S
FORT MC COY    PTCLDY    57  56  94 CALM      30.01R
CAMP DOUGLAS   FOG       52  52 100 CALM      30.00S VSB 1/2
VIROQUA        FAIR      65  65 100 E3        30.02R
WIS DELLS      CLEAR     59  57  93 CALM      30.01R
$$

...ELSEWHERE IN WISCONSIN...


CITY           SKY/WX    TMP DP  RH WIND       PRES   REMARKS
MILWAUKEE      CLEAR     66  60  81 NW3       29.99S
MADISON        PTCLDY    61  59  93 CALM      30.00R
GREEN BAY      CLEAR     60  59  96 CALM      30.01R
EAU CLAIRE     CLEAR     63  61  93 CALM      29.99R
BLACK RVR FLS  FAIR      56  56 100 CALM      30.00R
MEDFORD        CLEAR     55  55  99 CALM      30.04R
WAUSAU         CLEAR     61  59  93 NE3       30.02R
WIS RAPIDS     CLEAR     57  55  93 CALM      30.03R
MARSHFIELD     CLEAR     60  55  83 CALM      30.03R
RICE LAKE      FOG       61  60  96 CALM      30.02R VSB 1/4
$$

...NORTHEAST IOWA...


CITY           SKY/WX    TMP DP  RH WIND       PRES   REMARKS
DECORAH        NOT AVBL
MASON CITY     CLOUDY    71  71 100 SE8       29.96F
CHARLES CITY   CLOUDY    70  70 100 E6        29.98S
OELWEIN          N/A     68  68 100 E6        29.98F
$$

...ELSEWHERE IN IOWA...


CITY           SKY/WX    TMP DP  RH WIND       PRES   REMARKS
DES MOINES     PTCLDY    77  72  84 E7        29.89F
IOWA CITY      CLOUDY    71  69  93 NE6       29.96S
FORT DODGE     CLOUDY    72  70  94 E6        29.92F
$$

...NORTHERN ILLINOIS...


CITY           SKY/WX    TMP DP  RH WIND       PRES   REMARKS
CHICAGO-OHARE  PTCLDY    69  66  90 N5        29.97R
CHICAGO-MIDWAY PTCLDY    72  65  78 CALM      29.96R
MOLINE         MOCLDY    69  65  86 NE3       29.95S
ROCKFORD       PTCLDY    68  59  73 CALM      29.99S
PEORIA         FOG       73  71  93 E3        29.94S VSB 1/4
$$

NOTE: "FAIR" INDICATES FEW OR NO CLOUDS BELOW 12,000 FEET WITH NO
SIGNIFICANT WEATHER AND/OR OBSTRUCTIONS TO VISIBILITY. WIND
SPEEDS ARE IN MILES-PER-HOUR.



USA.gov is the U.S. government's official web portal to all federal, state and local government web resources and services.